Preview of NWS' New Version of Forecast
This preview is not operational and should not be used for support decisions.

Regional Weather Roundup (RWR)

Issued by National Weather Service (NWS)

                            
000
ASUS43 KMKX 180911
RWRWI 

WISCONSIN REGIONAL WEATHER ROUNDUP
NATIONAL WEATHER SERVICE MILWAUKEE/SULLIVAN WI
400 AM CDT TUE JUN 18 2019

NOTE: "FAIR" INDICATES FEW OR NO CLOUDS BELOW 12,000 FEET WITH NO
SIGNIFICANT WEATHER AND/OR OBSTRUCTIONS TO VISIBILITY.

WIZ001-002-006>008-014>016-023>028-181000-
NORTHWEST WISCONSIN
  
CITY           SKY/WX    TMP DP  RH WIND       PRES   REMARKS
SUPERIOR ARPT  CLOUDY    48  47  99 CALM      29.97F                  
ASHLAND        CLOUDY    51  51 100 CALM      29.96F FOG              
HAYWARD        FOG       49  49 100 CALM      29.97F VSB 1/4          
SIREN          FAIR      46  44  95 CALM      29.97F                  
CUMBERLAND     FAIR      50  50 100 CALM      29.97S                  
RICE LAKE      FAIR      51  46  81 CALM      29.98S HAZE             
CHETEK         FAIR      54  54 100 N3        29.97S FOG              
LADYSMITH      FAIR      57  56  98 CALM      29.98S                  
EAU CLAIRE     CLOUDY    61  60  97 NW3       29.95F                  
MENOMONIE      FAIR      56  52  87 CALM      29.97S                  
NEW RICHMOND   FAIR      53  52  96 CALM      29.97S                  
OSCEOLA        FAIR      52  50  95 CALM      30.00S                  
$$
 
WIZ003>005-009-010-017-018-181000-
NORTH CENTRAL WISCONSIN
  
CITY           SKY/WX    TMP DP  RH WIND       PRES   REMARKS
MANITOWISH WTR FOG       49  49 100 CALM      29.96S VSB 1/2          
ARBOR VITAE    CLOUDY    59  57  92 CALM      29.95F                  
WOODRUFF       CLOUDY    59  57  92 CALM      29.95F                  
RHINELANDER    NOT AVBL                                               
EAGLE RIVER    CLOUDY    58  58  98 CALM      29.95F                  
LAND O LAKES   MOCLDY    55  55 100 CALM      29.97S                  
PHILLIPS       FOG       55  55 100 CALM      29.96F VSB 1/2          
TOMAHAWK       CLOUDY    58  57  97 CALM      29.97S                  
MEDFORD        CLOUDY    59  58  94 SW3       29.96F                  
MERRILL        RAIN      60  60 100 SW3       29.97F                  
$$
 
WIZ029-030-035-036-043>047-181000-
CENTRAL WISCONSIN
  
CITY           SKY/WX    TMP DP  RH WIND       PRES   REMARKS
WAUSAU         NOT AVBL                                               
MOSINEE        CLOUDY    61  59  94 CALM      29.97F                  
MARSHFIELD     NOT AVBL                                               
STEVENS POINT  CLOUDY    59  59 100 CALM      29.96F                  
WAUPACA        CLOUDY    62  59  89 CALM      29.96F                  
WAUTOMA        NOT AVBL                                               
WISC RAPIDS    NOT AVBL                                               
CAMP DOUGLAS   FAIR      57  57 100 S6        29.96S FOG              
$$
 
WIZ011>013-019>022-031-037>040-048>050-181000-
NORTHEAST WISCONSIN
  
CITY           SKY/WX    TMP DP  RH WIND       PRES   REMARKS
ANTIGO         LGT RAIN  59  59  99 W5        29.98R                  
SHAWANO        CLOUDY    62  54  77 CALM      29.96S                  
OCONTO         CLOUDY    57  56  95 CALM      29.96F                  
STURGEON BAY   NOT AVBL                                               
GREEN BAY      CLOUDY    57  53  86 S3        29.96F                  
MANITOWOC      FAIR      54  49  83 S3        29.98F                  
APPLETON       CLOUDY    59  50  72 S3        29.95F                  
CLINTONVILLE   CLOUDY    60  55  83 CALM      29.95F                  
OSHKOSH        NOT AVBL                                               
$$
 
WIZ032>034-041-042-053>061-181000-
SOUTHWEST WISCONSIN
  
CITY           SKY/WX    TMP DP  RH WIND       PRES   REMARKS
LA CROSSE      CLOUDY    66  62  87 S5        29.95S                  
SPARTA         MOCLDY    53  53 100 CALM      29.96F                  
VIROQUA        CLOUDY    62  62 100 S5        29.98S                  
BOSCOBEL       CLOUDY    60  58  92 CALM      29.97F                  
PRAIRIE DU CHI CLOUDY    62  60  93 CALM      29.97S                  
PLATTEVILLE    CLOUDY    60  60 100 CALM      29.98F                  
$$

WIZ056-057-062-063-064-067-068-181000-
SOUTH CENTRAL WISCONSIN
  
CITY           SKY/WX    TMP DP  RH WIND       PRES   REMARKS
REEDSBURG      FAIR      59  59 100 CALM      29.97S                  
BARABOO/DELLS  FAIR      59  58  95 CALM      29.97S                  
LONE ROCK      CLOUDY    58  57  97 CALM      29.97F FOG              
MINERAL POINT  MOCLDY    59  59 100 CALM      29.98F FOG              
MADISON        FAIR      57  55  93 CALM      29.96F                  
MIDDLETON      FAIR      56  56 100 CALM      29.99S                  
WATERTOWN      FAIR      55  55 100 CALM      29.98S                  
MONROE         FAIR      60  58  92 W5        29.98S                  
JANESVILLE     FAIR      55  55 100 CALM      29.98S FOG              
$$
 
WIZ051-052-058>065-066-070>072-181000-
SOUTHEAST WISCONSIN
  
CITY           SKY/WX    TMP DP  RH WIND       PRES   REMARKS
MILWAUKEE      FAIR      53  48  83 SW3       29.98F                  
WAUKESHA       FAIR      48  48 100 CALM      30.00S FOG              
MILWAUKEE/TIMM FAIR      50  45  81 CALM      30.00S                  
RACINE         CLOUDY    53  50  89 CALM      30.00S                  
KENOSHA        CLOUDY    56  55  97 CALM      29.99F                  
FOND DU LAC    FAIR      58  54  86 S5        29.97F                  
SHEBOYGAN      FAIR      53  50  89 S3        29.97F                  
WEST BEND      FAIR      50  50 100 CALM      29.98F                  
JUNEAU         FAIR      56  55  96 CALM      29.99S                  
$$

LSZ147-162-181000-
LAKE SUPERIOR
  
STATION/POSITION TIME  TEMP    WIND        PRES    WAVE
                       AIR SEA DIR/SP/G            HT/PER
                 (UTC) (F)     (DEG/KT/KT) (MB)    (FT/S)
W MID LAKE BUOY  0850   41 38   40/  6/  8 1014.7F   1
$$
 
LMZ867-665-643>646-181000-
LAKE MICHIGAN
  
STATION/POSITION TIME  TEMP    WIND        PRES    WAVE
                       AIR SEA DIR/SP/G            HT/PER
                 (UTC) (F)     (DEG/KT/KT) (MB)    (FT/S)
S GREEN BAY BUOY 0830   60 62  190/  8/ 10 1014.7F
N MID LAKE BUOY  0850   45 39  170/  4/  6 1015.9F   0
NORTHPORT PIER   0840   56     280/  2/  4 1014.9S
SHEBOYGAN LAKESH 0900   55     220/  6/  7 1015.0F
ATWATER BUOY     0830   52 52   CALM  /  2 1015.5F   0
MILWAUKEE LAKESH 0850   54     160/  1/  1   N/A
S MID LAKE BUOY  0850   47 45  290/  2/  2 1015.8F   0
KENOSHA   LAKESH 0900   56        CALM     1015.2
$$

TC  - TEMPERATURE IN CELSIUS
VSB - VISIBILITY IN STATUTE MILES
WCI - WIND CHILL INDEX
HX  - HEAT INDEX